Regional Weather Roundup
Issued by NWS

Home | Current Version | Previous Version | Graphics & Text | Print | Product List | Glossary On
Versions: 1 2 3 4 5 6 7 8 9 10 11 12 13 14 15 16 17 18 19 20 21 22 23 24 25 26 27 28 29 30 31 32 33 34 35 36 37 38 39 40 41 42 43 44 45 46 47 48 49 50
239
ASUS43 KLSX 191210
RWRMO

WEATHER SUMMARY FOR MISSOURI
NATIONAL WEATHER SERVICE SPRINGFIELD MO
600 AM CST THU JAN 19 2017

NOTE: "FAIR" INDICATES FEW OR NO CLOUDS BELOW 12,000 FEET WITH NO
       SIGNIFICANT WEATHER AND/OR OBSTRUCTIONS TO VISIBILITY.
       CURRENT SKY AND/OR WEATHER CONDITIONS ARE NOT AVAILABLE FOR
       CHILLICOTHE AND FARMINGTON.

MOZ001>031-035>038-043-044-053-054-191300-
...NORTHERN AND WESTERN MISSOURI...

CITY           SKY/WX    TMP DP  RH WIND       PRES   REMARKS
KANSAS CTY INT FOG       42  40  92 SE9       29.82F VSB 1
6HR MIN TEMP:  42; 6HR MAX TEMP:  43; 6HR PCP: TRACE;

KANSAS C DTWN  CLOUDY    44  43  96 E5        29.83F
6HR MIN TEMP:  42; 6HR MAX TEMP:  45;

LEE`S SUMMIT   FOG       43  43 100 SE7       29.82F VSB 3/4
6HR MIN TEMP:  42; 6HR MAX TEMP:  43;

ST JOSEPH      CLOUDY    42  42 100 S8        29.82F
6HR MIN TEMP:  38; 6HR MAX TEMP:  42;

CHILLICOTHE      N/A     40  39  97 SE5       29.87F
6HR MIN TEMP:  33; 6HR MAX TEMP:  40; 6HR PCP:  0.01;

KIRKSVILLE     CLOUDY    36  34  92 E3        29.88F FOG
6HR MIN TEMP:  34; 6HR MAX TEMP:  36;


$$
MOZ066>068-077>081-088>096-101>105-191300-
...SOUTHWEST MISSOURI...

CITY           SKY/WX    TMP DP  RH WIND       PRES   REMARKS
SPRINGFIELD    LGT RAIN  44  43  96 S8        29.86R FOG
6HR MIN TEMP:  43; 6HR MAX TEMP:  44; 6HR PCP: TRACE;

JOPLIN         CLOUDY    47  47 100 CALM      29.84F FOG
6HR MIN TEMP:  46; 6HR MAX TEMP:  47;

BRANSON        FOG       41  41 100 E7        29.87F VSB<1/4

$$
MOZ032>034-039>042-045>050-055>058-069>072-191300-
...CENTRAL MISSOURI...

CITY           SKY/WX    TMP DP  RH WIND       PRES   REMARKS
COLUMBIA       CLOUDY    43  42  97 SE6       29.88F
6HR MIN TEMP:  43; 6HR MAX TEMP:  45; 6HR PCP:  0.26;

JEFFERSON CITY CLOUDY    44  42  93 E6        29.89F
6HR MIN TEMP:  44; 6HR MAX TEMP:  46; 6HR PCP:  0.01;

ROLLA          FOG       42  42 100 E9        29.87R VSB 1
6HR MIN TEMP:  42; 6HR MAX TEMP:  42; 6HR PCP: TRACE;

SEDALIA        CLOUDY    45  44  97 SE6       29.87F FOG
6HR MIN TEMP:  45; 6HR MAX TEMP:  48;

WHITEMAN AFB   CLOUDY    45  45 100 SE6       29.84F
WARRENSBURG    CLOUDY    43  43 100 E3        29.84F FOG
OSAGE BEACH    CLOUDY    43  42  97 NE3       29.89F

$$
MOZ051-052-059>065-191300-
...EAST CENTRAL MISSOURI...

CITY           SKY/WX    TMP DP  RH WIND       PRES   REMARKS
ST LOUIS INTL  LGT RAIN  43  39  86 E9        29.93F FOG
6HR MIN TEMP:  43; 6HR MAX TEMP:  45; 6HR PCP: TRACE;

SPIRIT OF STL  LGT RAIN  43  43 100 CALM      29.93S FOG
6HR MIN TEMP:  43; 6HR MAX TEMP:  44; 6HR PCP:  0.01;

ST CHARLES     CLOUDY    42  41  96 E9        29.93F
6HR MIN TEMP:  41; 6HR MAX TEMP:  42;


$$
MOZ072>076-082>087-097>100-106>115-191300-
...SOUTH CENTRAL AND SOUTHEAST MISSOURI...

CITY           SKY/WX    TMP DP  RH WIND       PRES   REMARKS
CAPE GIRARDEAU CLOUDY    45  43  93 E7        29.94F
6HR MIN TEMP:  43; 6HR MAX TEMP:  45; 6HR PCP: TRACE;

FARMINGTON     CLOUDY    42  41  96 E5        29.92F FOG
6HR MIN TEMP:  41; 6HR MAX TEMP:  42; 6HR PCP:  0.02;

POPLAR BLUFF   LGT RAIN  44  44 100 NE6       29.92S VSB 1
6HR MIN TEMP:  43; 6HR MAX TEMP:  44; 6HR PCP:  0.01;

WEST PLAINS    CLOUDY    42  42 100 SE5       29.90R
6HR MIN TEMP:  41; 6HR MAX TEMP:  42; 6HR PCP:  0.01;


$$




USA.gov is the U.S. government's official web portal to all federal, state and local government web resources and services.